Flag for U.S.A. Weather past 2 weeks in Peoria, Illinois, U.S.A.

Now
69 °F

Light rain. Overcast.


Feels Like: 69 °F
Forecast: 68 / 79 °F
Wind: 3 mph from Southeast

Location: Greater Peoria Regional Airport

Current Time: Aug 29, 2015 at 3:29:03 AM

Latest Report: Aug 29, 2015 at 1:54 AM


Visibility: 7 mi

Pressure: 30.01 "Hg

Humidity: 76%

Dew point: 61 °F

Location of PeoriaLocation

Historic Weather in Peoria — Graph

°F

Peoria temperature yesterday

Maximum temperature yesterday: 77 °F (at 12:54 PM)
Minimum temperature yesterday: 62 °F (at 5:54 AM)
Average temperature yesterday: 71 °F

Past Weeks' High & Low Weather Summary

 TemperatureHumidityPressure
High91 °F (Aug 15, 2:54 PM)93% (Aug 26, 6:54 AM)30.20 "Hg (Aug 26, 6:54 AM)
Low55 °F (Aug 25, 5:54 AM)33% (Aug 24, 3:54 PM)29.64 "Hg (Aug 19, 3:54 AM)
Average72 °F67%30.01 "Hg
* Reported Aug 14 1:54 AM — Aug 29 1:54 AM, Peoria, Weather by CustomWeather, © 2015

Note: Actual official high and low records may vary slightly from our data, if they occured in-between our weather recording intervals... More about our weather records

Advertising

Peoria weather history for previous 24 hours

 ConditionsComfort  
Time TempWeatherWind HumidityBarometerVisibility
1:54 AM
Sat, Aug 29
69 °FLight rain. Overcast.3 mph76%30.01 "Hg7 mi
12:54 AM69 °FLight rain. Overcast.3 mph76%30.03 "Hg10 mi
11:54 PM
Fri, Aug 28
72 °FOvercast.6 mph64%30.02 "Hg10 mi
10:54 PM72 °FMostly cloudy.5 mph64%30.02 "Hg10 mi
9:54 PM72 °FClear.8 mph64%30.00 "Hg10 mi
8:54 PM73 °FClear.7 mph62%29.98 "Hg10 mi
7:54 PM74 °FSunny.7 mph62%30.00 "Hg10 mi
6:54 PM75 °FSunny.6 mph60%30.00 "Hg10 mi
5:54 PM77 °FSunny.7 mph54%30.01 "Hg10 mi
4:54 PM77 °FSunny.9 mph54%30.01 "Hg10 mi
3:54 PM77 °FSunny.7 mph60%30.03 "Hg10 mi
2:54 PM77 °FSunny.6 mph56%30.06 "Hg10 mi
1:54 PM76 °FSunny.8 mph56%30.08 "Hg10 mi
12:54 PM77 °FSunny.6 mph58%30.09 "Hg10 mi
11:54 AM74 °FSunny.8 mph64%30.11 "Hg10 mi
10:54 AM73 °FSunny.8 mph66%30.12 "Hg10 mi
9:54 AM70 °FSunny.6 mph71%30.13 "Hg10 mi
8:54 AM67 °FSunny.7 mph76%30.13 "Hg10 mi
7:54 AM64 °FSunny.No wind84%30.12 "Hg10 mi
6:54 AM63 °FClear.5 mph84%30.11 "Hg7 mi
5:54 AM62 °FClear.3 mph83%30.09 "Hg10 mi
4:54 AM63 °FClear.No wind81%30.09 "Hg10 mi
3:54 AM64 °FClear.6 mph81%30.09 "Hg10 mi
Weather by CustomWeather, © 2015

See weather overviewHow to use our weather pages